TimeEDT,TemperatureF,Dew PointF,Humidity,Sea Level PressureIn,VisibilityMPH,Wind Direction,Wind SpeedMPH,Gust SpeedMPH,PrecipitationIn,Events,Conditions,WindDirDegrees,DateUTC
12:54 AM,78.1,71.1,79,30.16,10.0,Variable,3.5,-,N/A,,Clear,0,2013-07-06 04:54:00
1:54 AM,75.9,71.1,85,30.15,10.0,Calm,Calm,-,N/A,,Clear,0,2013-07-06 05:54:00
2:54 AM,75.0,72.0,90,30.16,10.0,Calm,Calm,-,N/A,,Clear,0,2013-07-06 06:54:00
3:54 AM,75.0,72.0,90,30.15,10.0,Calm,Calm,-,N/A,,Clear,0,2013-07-06 07:54:00
4:54 AM,73.9,72.0,93,30.15,10.0,Calm,Calm,-,N/A,,Clear,0,2013-07-06 08:54:00
5:54 AM,73.9,71.1,91,30.15,9.0,Calm,Calm,-,N/A,,Clear,0,2013-07-06 09:54:00
6:54 AM,75.9,73.0,91,30.17,10.0,Calm,Calm,-,N/A,,Clear,0,2013-07-06 10:54:00
7:54 AM,80.1,73.9,81,30.17,10.0,WSW,4.6,-,N/A,,Clear,250,2013-07-06 11:54:00
8:54 AM,82.9,73.0,72,30.17,10.0,WSW,8.1,-,N/A,,Clear,240,2013-07-06 12:54:00
9:54 AM,84.9,73.0,67,30.16,10.0,West,9.2,-,N/A,,Clear,260,2013-07-06 13:54:00
10:54 AM,87.1,73.0,63,30.15,10.0,WSW,6.9,-,N/A,,Clear,240,2013-07-06 14:54:00
11:54 AM,89.1,72.0,57,30.14,10.0,WSW,6.9,-,N/A,,Partly Cloudy,250,2013-07-06 15:54:00
12:54 PM,90.0,71.1,54,30.13,10.0,West,8.1,-,N/A,,Clear,260,2013-07-06 16:54:00
1:54 PM,90.0,72.0,55,30.11,10.0,WSW,5.8,-,N/A,,Partly Cloudy,240,2013-07-06 17:54:00
2:54 PM,91.9,71.1,50,30.09,10.0,West,6.9,-,N/A,,Partly Cloudy,260,2013-07-06 18:54:00
3:54 PM,91.9,69.1,47,30.08,10.0,Variable,5.8,-,N/A,,Clear,0,2013-07-06 19:54:00
4:54 PM,91.9,70.0,48,30.07,10.0,SW,5.8,-,N/A,,Clear,220,2013-07-06 20:54:00
5:54 PM,91.0,69.1,48,30.06,10.0,WSW,6.9,-,N/A,,Clear,240,2013-07-06 21:54:00
6:54 PM,90.0,70.0,52,30.05,10.0,SW,5.8,-,N/A,,Clear,220,2013-07-06 22:54:00
7:54 PM,87.1,71.1,59,30.05,10.0,SW,4.6,-,N/A,,Clear,220,2013-07-06 23:54:00
8:54 PM,84.0,72.0,67,30.06,10.0,Calm,Calm,-,N/A,,Clear,0,2013-07-07 00:54:00
9:54 PM,82.9,72.0,69,30.08,10.0,Variable,3.5,-,N/A,,Clear,0,2013-07-07 01:54:00
10:54 PM,84.0,71.1,65,30.09,10.0,SW,5.8,-,N/A,,Clear,230,2013-07-07 02:54:00
11:54 PM,82.9,71.1,67,30.09,10.0,SW,8.1,-,N/A,,Clear,230,2013-07-07 03:54:00